Skip Page Navigation
NASA JPL Caltech
NASA Logo - Jet Propulsion Laboratory + View the NASA Portal
+ Near-Earth Object (NEO) Program
Search JPL
JPL Home Earth Solar System Stars & Galaxies Technology
JPL Solar System Dynamics
BODIES ORBITS EPHEMERIDES TOOLS PHYSICAL DATA DISCOVERY FAQ SITE MAP
JPL Small-Body Database Browser
Search: [ help ]  
(2011 AX22)
Classification: Aten [NEO]          SPK-ID: 3555152
Ephemeris | Orbit Diagram | Orbital Elements | Physical Parameters | Close-Approach Data ]

[ hide orbit diagram ]
Orbit Diagram
Note: Make sure you have Java enabled on your browser to see the applet. This applet is provided as a 3D orbit visualization tool. The applet was implemented using 2-body methods, and hence should not be used for determining accurate long-term trajectories (over several years or decades) or planetary encounter circumstances. For accurate long-term ephemerides, please instead use our Horizons system.
Orbit Viewer

Additional Notes: the orbits shown in the applet are color coded. The planets are white lines, and the asteroid/comet is a blue line. The bright white line indicates the portion of the orbit that is above the ecliptic plane, and the darker portion is below the ecliptic plane. Likewise for the asteroid/comet orbit, the light blue indicates the portion above the ecliptic plane, and the dark blue the portion below the ecliptic plane.

Orbit Viewer applet originally written and kindly provided by Osamu Ajiki (AstroArts), and further modified by Ron Baalke (JPL).


Orbital Elements at Epoch 2456400.5 (2013-Apr-18.0) TDB
Reference: JPL 11 (heliocentric ecliptic J2000)
 Element Value Uncertainty (1-sigma)   Units 
e .3367859496831481 2.6112e-06  
a .9672618839044339 4.3169e-07 AU
q .6415016717413683 2.7767e-06 AU
i .6864405841569814 1.5357e-05 deg
node 57.82769428596296 0.0029404 deg
peri 291.1709789546669 0.0027166 deg
M 221.9929267002765 0.00072943 deg
tp 2456533.702808994858
(2013-Aug-29.20280899)
0.00078546 JED
period 347.4677789449584
0.95
0.00023261
6.369e-07
d
yr
n 1.036067289729983 6.936e-07 deg/d
Q 1.2930220960675 5.7708e-07 AU
  Orbit Determination Parameters
   # obs. used (total)      68  
   data-arc span      406 days (1.11 yr)  
   first obs. used      2011-01-10  
   last obs. used      2012-02-20  
   planetary ephem.      DE405  
   SB-pert. ephem.      SB405-CPV-2  
   condition code      3  
   fit RMS      .69406  
   data source      ORB  
   producer      Otto Matic  
   solution date      2012-Mar-02 00:50:15  

Additional Information
 Earth MOID = .00112604 AU 
 T_jup = 6.191 
[ show covariance matrix ]

Ephemeris | Orbit Diagram | Orbital Elements | Physical Parameters | Close-Approach Data ]

Physical Parameter Table
Parameter Symbol Value Units Sigma Reference Notes
absolute magnitude H 24.73 mag .54579 11 autocmod 2.5b

[ show close-approach data ]
Ephemeris | Orbit Diagram | Orbital Elements | Physical Parameters | Close-Approach Data ]
ABOUT SSD CREDITS/AWARDS PRIVACY/COPYRIGHT GLOSSARY LINKS
FirstGov 2013-May-20 15:57 UT
(server date/time)  
NASA Home Page
Site Manager:   Donald K. Yeomans
Webmaster  Alan B. Chamberlin